EW7216 Weather Reports


Display with metric or nautical units.
time (UTC)temp
F
wind
direction
speed
MPH
gust
MPH
rain 1hr
in
rain 24hr
in
rain mn
in
humidity
%
barometer
mb
20260903224104 80 151 4.0 7.0 0.00 0.00 0.00 50 1023.7
20260903223104 79 152 3.0 4.0 0.00 0.00 0.00 52 1023.7
20260903222105 78 162 2.0 4.0 0.00 0.00 0.00 55 1023.4
20260903221105 78 157 4.0 4.0 0.00 0.00 0.00 59 1023.4
20260903220104 78 150 4.0 4.0 0.00 0.00 0.00 57 1023.5
20260903215105 78 153 2.0 4.0 0.00 0.00 0.00 56 1023.6
20260903214104 77 0.0 0.0 0.00 0.00 0.00 57 1023.5
20260903213104 77 138 0.0 2.0 0.00 0.00 0.00 61 1023.5
20260903212104 77 0.0 0.0 0.00 0.00 0.00 62 1023.4
20260903211104 77 0.0 0.0 0.00 0.00 0.00 62 1023.6
20260903210104 77 0.0 0.0 0.00 0.00 0.00 62 1023.3
20260903205104 78 327 0.0 2.0 0.00 0.00 0.00 62 1023.4
20260903204104 78 274 2.0 3.0 0.00 0.00 0.00 60 1023.4
20260903203104 78 303 3.0 4.0 0.00 0.00 0.00 60 1023.4
20260903202104 79 293 2.0 3.0 0.00 0.00 0.00 59 1023.4
20260903201124 79 287 3.0 3.0 0.00 0.00 0.00 59 1023.4
20260903200104 79 247 2.0 3.0 0.00 0.00 0.00 58 1023.4
20260903195104 79 298 2.0 3.0 0.00 0.00 0.00 58 1023.2
20260903194104 79 288 3.0 3.0 0.00 0.00 0.00 57 1023.3
20260903193104 80 298 3.0 4.0 0.00 0.00 0.00 57 1023.1
20260903192105 80 290 3.0 4.0 0.00 0.00 0.00 57 1023.2
20260903191105 80 296 3.0 3.0 0.00 0.00 0.00 56 1023.1
20260903190104 80 305 3.0 4.0 0.00 0.00 0.00 57 1022.9
20260903185125 80 287 3.0 4.0 0.00 0.00 0.00 57 1022.9
20260903184124 80 305 2.0 4.0 0.00 0.00 0.00 57 1022.8
20260903183104 80 315 3.0 6.0 0.00 0.00 0.00 56 1022.9
20260903182107 80 311 3.0 6.0 0.00 0.00 0.00 55 1022.9
20260903181104 80 316 3.0 7.0 0.00 0.00 0.00 55 1022.6
20260903180124 80 285 3.0 6.0 0.00 0.00 0.00 56 1022.4
20260903175104 80 300 3.0 4.0 0.00 0.00 0.00 56 1022.5
20260903174104 80 281 3.0 4.0 0.00 0.00 0.00 55 1022.6
20260903173104 81 313 3.0 4.0 0.00 0.00 0.00 55 1022.7
20260903172105 81 307 4.0 7.0 0.00 0.00 0.00 55 1022.6
20260903171104 81 326 4.0 7.0 0.00 0.00 0.00 54 1022.3
20260903170104 82 297 4.0 7.0 0.00 0.00 0.00 54 1022.4
20260903165125 82 287 5.0 9.0 0.00 0.00 0.00 52 1022.5
20260903164104 83 314 5.0 9.0 0.00 0.00 0.00 50 1022.4
20260903163104 83 308 5.0 10.0 0.00 0.00 0.00 49 1022.3
20260903162105 84 297 4.0 8.0 0.00 0.00 0.00 48 1022.4
20260903161105 84 335 4.0 8.0 0.00 0.00 0.00 46 1022.4
20260903160104 85 285 4.0 16.0 0.00 0.00 0.00 45 1022.2
20260903155105 85 218 3.0 11.0 0.00 0.00 0.00 45 1022.2
20260903154104 86 86 4.0 8.0 0.00 0.00 0.00 43 1022.1
20260903153104 86 334 3.0 7.0 0.00 0.00 0.00 43 1022.0
20260903152105 87 276 5.0 10.0 0.00 0.00 0.00 41 1021.9
20260903151145 87 315 5.0 10.0 0.00 0.00 0.00 38 1021.9
20260903150207 88 306 5.0 8.0 0.00 0.00 0.00 38 1021.9
20260903145105 89 314 4.0 10.0 0.00 0.00 0.00 36 1021.9
20260903144104 88 144 1.0 4.0 0.00 0.00 0.00 36 1021.9
20260903143105 88 324 3.0 7.0 0.00 0.00 0.00 36 1022.0
20260903142124 88 80 4.0 17.0 0.00 0.00 0.00 36 1022.0
20260903141124 88 173 1.0 4.0 0.00 0.00 0.00 36 1022.1
20260903140104 88 348 2.0 7.0 0.00 0.00 0.00 36 1022.1
20260903135104 87 354 3.0 7.0 0.00 0.00 0.00 37 1022.2
20260903134104 88 304 3.0 6.0 0.00 0.00 0.00 37 1022.1
20260903133104 87 339 3.0 7.0 0.00 0.00 0.00 37 1022.3
20260903132104 87 316 5.0 8.0 0.00 0.00 0.00 37 1022.3
20260903131105 87 315 4.0 10.0 0.00 0.00 0.00 38 1022.4
20260903130104 87 109 1.0 3.0 0.00 0.00 0.00 39 1022.4
20260903125124 86 267 1.0 4.0 0.00 0.00 0.00 39 1022.6
20260903124125 86 334 5.0 10.0 0.00 0.00 0.00 38 1022.8
20260903123104 86 281 3.0 8.0 0.00 0.00 0.00 39 1022.8
20260903122104 85 195 3.0 6.0 0.00 0.00 0.00 40 1022.8
20260903121104 86 284 4.0 10.0 0.00 0.00 0.00 40 1022.9
20260903120144 85 148 2.0 6.0 0.00 0.00 0.00 41 1022.9
20260903115103 85 150 1.0 3.0 0.00 0.00 0.00 42 1022.9
20260903114104 86 117 2.0 4.0 0.00 0.00 0.00 42 1022.9
20260903113104 85 39 2.0 7.0 0.00 0.00 0.00 42 1022.9
20260903112105 84 253 4.0 7.0 0.00 0.00 0.00 43 1023.1
20260903111126 84 341 2.0 7.0 0.00 0.00 0.00 41 1023.2
20260903110105 83 316 3.0 7.0 0.00 0.00 0.00 42 1023.4
20260903105104 84 58 3.0 6.0 0.00 0.00 0.00 42 1023.3
20260903104104 85 40 2.0 4.0 0.00 0.00 0.00 44 1023.3
20260903103104 84 134 1.0 4.0 0.00 0.00 0.00 44 1023.4
20260903102105 84 133 1.0 3.0 0.00 0.00 0.00 44 1023.5
20260903101105 83 129 2.0 4.0 0.00 0.00 0.00 47 1023.6
20260903100109 84 274 2.0 3.0 0.00 0.00 0.00 47 1023.6
20260903095105 83 308 1.0 3.0 0.00 0.00 0.00 49 1023.8
20260903094104 82 192 2.0 4.0 0.00 0.00 0.00 50 1023.9
20260903093124 82 17 3.0 7.0 0.00 0.00 0.00 49 1023.8
20260903092105 81 101 0.0 3.0 0.00 0.00 0.00 51 1024.0
20260903091104 81 101 1.0 2.0 0.00 0.00 0.00 51 1024.0
20260903090104 81 154 0.0 2.0 0.00 0.00 0.00 52 1023.9
20260903085105 81 95 1.0 2.0 0.00 0.00 0.00 53 1023.8
20260903084104 82 121 0.0 2.0 0.00 0.00 0.00 51 1023.8
20260903083104 82 169 0.0 1.0 0.00 0.00 0.00 52 1023.6
20260903082105 82 120 1.0 2.0 0.00 0.00 0.00 52 1023.5
20260903081105 81 140 0.0 2.0 0.00 0.00 0.00 53 1023.4
20260903080125 80 0.0 0.0 0.00 0.00 0.00 55 1023.4
20260903075105 78 0.0 0.0 0.00 0.00 0.00 58 1023.3
20260903074104 76 0.0 0.0 0.00 0.00 0.00 60 1023.4
20260903073104 76 0.0 0.0 0.00 0.00 0.00 61 1023.3
20260903072105 75 0.0 0.0 0.00 0.00 0.00 61 1023.0
20260903071128 76 0.0 1.0 0.00 0.00 0.00 60 1023.0
20260903070105 75 138 1.0 3.0 0.00 0.00 0.00 61 1023.1
20260903065104 75 0.0 1.0 0.00 0.00 0.00 62 1023.1
20260903064104 74 0.0 2.0 0.00 0.00 0.00 61 1023.0
20260903063124 73 142 0.0 3.0 0.00 0.00 0.00 62 1022.9
20260903062105 73 139 0.0 1.0 0.00 0.00 0.00 62 1022.9
20260903061107 73 141 0.0 1.0 0.00 0.00 0.00 62 1022.9
20260903060144 73 141 0.0 1.0 0.00 0.00 0.00 62 1022.6
20260903055104 73 0.0 1.0 0.00 0.00 0.00 62 1022.7
20260903054104 72 130 0.0 2.0 0.00 0.00 0.00 62 1022.8
20260903053104 72 135 1.0 2.0 0.00 0.00 0.00 62 1022.7
20260903052107 72 135 0.0 1.0 0.00 0.00 0.00 61 1022.6
20260903051105 72 0.0 0.0 0.00 0.00 0.00 62 1022.6
20260903050105 72 0.0 0.0 0.00 0.00 0.00 61 1022.4
20260903045105 72 0.0 0.0 0.00 0.00 0.00 61 1022.7
20260903044104 72 0.0 0.0 0.00 0.00 0.00 62 1022.5
20260903043127 72 0.0 0.0 0.00 0.00 0.00 62 1022.5
20260903042105 72 0.0 0.0 0.00 0.00 0.00 61 1022.4
20260903041104 73 0.0 0.0 0.00 0.00 0.00 61 1022.4
20260903040105 73 0.0 0.0 0.00 0.00 0.00 61 1022.6
20260903035104 73 0.0 0.0 0.00 0.00 0.00 61 1022.5
20260903034104 72 0.0 0.0 0.00 0.00 0.00 62 1022.5
20260903033104 72 0.0 0.0 0.00 0.00 0.00 62 1022.7
20260903032125 72 0.0 0.0 0.00 0.00 0.00 62 1022.7
20260903031104 72 0.0 0.0 0.00 0.00 0.00 62 1022.7
20260903030105 72 0.0 0.0 0.00 0.00 0.00 62 1022.8
20260903025105 73 0.0 0.0 0.00 0.00 0.00 61 1022.8
20260903024124 74 0.0 1.0 0.00 0.00 0.00 60 1022.8
20260903023107 74 307 1.0 2.0 0.00 0.00 0.00 60 1022.9
20260903022105 73 319 0.0 1.0 0.00 0.00 0.00 60 1022.9
20260903021105 73 219 0.0 1.0 0.00 0.00 0.00 61 1023.1
20260903020106 73 136 1.0 2.0 0.00 0.00 0.00 59 1023.0
20260903015125 73 0.0 0.0 0.00 0.00 0.00 60 1023.0
20260903014104 73 252 1.0 1.0 0.00 0.00 0.00 60 1022.9
20260903013104 74 322 1.0 2.0 0.00 0.00 0.00 60 1023.2
20260903012104 73 331 2.0 2.0 0.00 0.00 0.00 60 1023.1
20260903011105 74 299 1.0 2.0 0.00 0.00 0.00 59 1023.1
20260903010104 74 295 3.0 4.0 0.00 0.00 0.00 58 1023.1
20260903005124 74 305 2.0 3.0 0.00 0.00 0.00 58 1023.2
20260903004104 75 285 3.0 4.0 0.00 0.00 0.00 58 1023.3
20260903003104 74 290 2.0 2.0 0.00 0.00 0.00 59 1023.3
20260903002205 75 134 1.0 2.0 0.00 0.00 0.00 58 1023.4
20260903001105 75 28 0.0 1.0 0.00 0.00 0.00 57 1023.4
20260903000105 75 47 1.0 2.0 0.00 0.00 0.00 57 1023.4
20260902235104 75 322 1.0 2.0 0.00 0.00 0.00 57 1023.4
20260902234105 76 333 1.0 2.0 0.00 0.00 0.00 55 1023.4
20260902233104 76 305 1.0 2.0 0.00 0.00 0.00 54 1023.5
20260902232104 76 315 0.0 1.0 0.00 0.00 0.00 54 1023.5
20260902231104 76 285 1.0 1.0 0.00 0.00 0.00 54 1023.5
20260902230104 77 314 1.0 2.0 0.00 0.00 0.00 54 1023.5
20260902225104 77 311 2.0 3.0 0.00 0.00 0.00 53 1023.6